This is the latest recevied weather packets stored in our database for station/object TK5EP-13. If no packets are shown the sender has not sent any weather packets the latest 1 day(s).
| Time | Temp. | Humidity | Pressure | Rain* | Wind** | Luminosity | Snow |
|---|---|---|---|---|---|---|---|
| 1777963304 | 12.78° C | 97% | - | - | 7.6 m/s, 192° | - | - |
| 1777963003 | 12.78° C | 97% | - | - | 7.6 m/s, 188° | - | - |
| 1777962702 | 12.78° C | 97% | - | - | 8.05 m/s, 197° | - | - |
| 1777962401 | 12.78° C | 97% | - | - | 7.6 m/s, 205° | - | - |
| 1777962098 | 12.78° C | 97% | - | - | 8.05 m/s, 186° | - | - |
| 1777961797 | 12.78° C | 97% | - | - | 8.05 m/s, 196° | - | - |
| 1777961495 | 12.78° C | 97% | - | - | 7.6 m/s, 196° | - | - |
| 1777961194 | 12.78° C | 97% | - | - | 8.49 m/s, 203° | - | - |
| 1777960893 | 12.78° C | 97% | - | - | 7.6 m/s, 197° | - | - |
| 1777960592 | 12.78° C | 97% | - | - | 7.15 m/s, 199° | - | - |
| 1777960292 | 12.78° C | 97% | - | - | 8.05 m/s, 196° | - | - |
| 1777959991 | 12.78° C | 97% | - | - | 7.6 m/s, 197° | - | - |
| 1777959690 | 12.78° C | 97% | - | - | 8.05 m/s, 205° | - | - |
| 1777959389 | 12.78° C | 97% | - | - | 8.49 m/s, 210° | - | - |
| 1777959088 | 12.78° C | 97% | - | - | 8.49 m/s, 212° | - | - |
| 1777958787 | 12.78° C | 97% | - | - | 8.05 m/s, 200° | - | - |
| 1777958486 | 12.78° C | 97% | - | - | 8.49 m/s, 195° | - | - |
| 1777958185 | 12.78° C | 97% | - | - | 8.05 m/s, 220° | - | - |
| 1777957885 | 12.78° C | 97% | - | - | 8.05 m/s, 201° | - | - |
| 1777957584 | 12.78° C | 97% | - | - | 8.94 m/s, 193° | - | - |
| 1777957283 | 12.78° C | 97% | - | - | 8.49 m/s, 199° | - | - |
| 1777956982 | 12.78° C | 96% | - | - | 7.6 m/s, 205° | - | - |
| 1777956678 | 12.78° C | 97% | - | - | 8.94 m/s, 193° | - | - |
| 1777956378 | 12.78° C | 97% | - | - | 9.83 m/s, 194° | - | - |
| 1777956077 | 12.78° C | 96% | - | - | 9.83 m/s, 199° | - | - |
* Rain since midnight (hover to see other rain measurements)
** Current wind speed in m/s (hover to see current wind gust speed)